Jefferson, NC

4:33 PM EDT on July 23, 2019 (GMT -0400)
Ashe County

Weather History for KGEV - May, 2019

Change the Weather History Date:

Wednesday, May 1, 2019

  Actual Average Record
Temperature  
Mean Temperature 68 °F -  
Max Temperature 75 °F 69 °F 84 °F (2007)
Min Temperature 60 °F 43 °F 27 °F (1988)
Cooling Degree Days 2    
Growing Degree Days 18 (Base 50)    
Moisture  
Dew Point 56 °F    
Average Humidity 71    
Maximum Humidity 88    
Minimum Humidity 45    
Precipitation  
Precipitation 0.00 in - - ()
Sea Level Pressure  
Sea Level Pressure 30.32 in    
Wind  
Wind Speed 3 mph (South)    
Max Wind Speed 10 mph    
Max Gust Speed 21 mph    
Visibility 10 miles    
Events      
Averages and records for this station are not official NWS values.
T = Trace of Precipitation, MM = Missing Value Source: NWS Daily Summary

Daily Weather History Graph

Daily Weather History Graph

Search for Another Location

Airport or City:

Astronomy

May. 01, 2019 Rise Set
Actual Time 6:32 AM EDT 8:13 PM EDT
Civil Twilight 6:05 AM EDT 8:41 PM EDT
Nautical Twilight 5:31 AM EDT 9:14 PM EDT
Astronomical Twilight 4:56 AM EDT 9:50 PM EDT
Moon 5:08 AM EDT (5/1) 5:08 PM EDT (5/1)
Length of Visible Light 14h 36m
Length of Day
13h 40m
Waning Crescent, 11% of the Moon is Illuminated
May 1
Waning Crescent
May 4
New
May 11
First Quarter
May 18
Full
May 26
Last Quarter

Hourly Weather History & Observations

Time (EDT) Temp. Dew Point Humidity Pressure Visibility Wind Dir Wind Speed Gust Speed Precip Events Conditions
12:05 AM 63.5 °F 56.8 °F 79% 30.31 in 10.0 mi Calm Calm - N/A   Clear
12:25 AM 63.1 °F 56.8 °F 80% 30.31 in 10.0 mi South 3.5 mph - N/A   Clear
12:45 AM 63.1 °F 56.8 °F 80% 30.31 in 10.0 mi Calm Calm - N/A   Clear
1:05 AM 63.5 °F 57.2 °F 80% 30.32 in 10.0 mi South 4.6 mph - N/A   Clear
1:25 AM 63.5 °F 57.2 °F 80% 30.31 in 10.0 mi Calm Calm - N/A   Clear
1:45 AM 63.3 °F 57.2 °F 80% 30.31 in 10.0 mi Calm Calm - N/A   Clear
2:05 AM 63.5 °F 57.2 °F 80% 30.31 in 10.0 mi West 3.5 mph - N/A   Clear
2:25 AM 63.7 °F 57.2 °F 79% 30.31 in 10.0 mi Calm Calm - N/A   Clear
2:45 AM 63.5 °F 57.2 °F 80% 30.30 in 10.0 mi Calm Calm - N/A   Clear
3:05 AM 62.1 °F 56.8 °F 83% 30.30 in 10.0 mi Calm Calm - N/A   Clear
3:25 AM 62.8 °F 56.5 °F 80% 30.30 in 10.0 mi Calm Calm - N/A   Clear
3:45 AM 62.6 °F 56.5 °F 80% 30.29 in 10.0 mi Calm Calm - N/A   Clear
4:05 AM 62.6 °F 56.1 °F 79% 30.30 in 10.0 mi Calm Calm - N/A   Clear
4:25 AM 63.5 °F 56.3 °F 77% 30.29 in 10.0 mi Calm Calm - N/A   Clear
4:45 AM 64.4 °F 55.9 °F 74% 30.30 in 10.0 mi West 3.5 mph - N/A   Clear
5:05 AM 62.8 °F 55.9 °F 78% 30.30 in 10.0 mi South 3.5 mph - N/A   Clear
5:25 AM 61.9 °F 55.9 °F 81% 30.30 in 10.0 mi SSW 4.6 mph - N/A   Clear
5:45 AM 61.7 °F 56.3 °F 82% 30.31 in 10.0 mi Calm Calm - N/A   Clear
6:05 AM 60.1 °F 56.3 °F 87% 30.31 in 10.0 mi Calm Calm - N/A   Clear
6:25 AM 60.1 °F 56.7 °F 88% 30.31 in 10.0 mi SE 3.5 mph - N/A   Clear
6:45 AM 60.4 °F 56.7 °F 87% 30.32 in 10.0 mi Calm Calm - N/A   Clear
7:05 AM 60.3 °F 56.7 °F 88% 30.33 in 10.0 mi Calm Calm - N/A   Clear
7:25 AM 60.8 °F 56.3 °F 85% 30.33 in 10.0 mi Calm Calm - N/A   Clear
7:45 AM 61.7 °F 56.8 °F 84% 30.34 in 10.0 mi Calm Calm - N/A   Clear
8:25 AM 63.5 °F 57.7 °F 81% 30.34 in 7.0 mi Calm Calm - N/A   Clear
8:45 AM 66.2 °F 57.0 °F 72% 30.34 in 10.0 mi SSE 4.6 mph - N/A   Clear
9:05 AM 67.3 °F 57.0 °F 70% 30.34 in 10.0 mi South 6.9 mph - N/A   Clear
9:25 AM 68.2 °F 56.8 °F 67% 30.35 in 10.0 mi South 8.1 mph - N/A   Clear
9:45 AM 69.8 °F 57.0 °F 64% 30.35 in 10.0 mi South 9.2 mph - N/A   Clear
10:05 AM 70.2 °F 57.6 °F 64% 30.35 in 10.0 mi South 6.9 mph - N/A   Clear
10:25 AM 70.5 °F 57.2 °F 63% 30.36 in 10.0 mi South 10.4 mph - N/A   Clear
10:45 AM 70.5 °F 56.8 °F 62% 30.36 in 10.0 mi SSE 9.2 mph 17.3 mph N/A   Clear
11:05 AM 70.9 °F 56.5 °F 60% 30.36 in 10.0 mi South 6.9 mph 19.6 mph N/A   Clear
11:25 AM 71.6 °F 56.3 °F 58% 30.36 in 10.0 mi South 9.2 mph 17.3 mph N/A   Clear
11:45 AM 72.5 °F 55.4 °F 55% 30.36 in 10.0 mi South 8.1 mph - N/A   Clear
12:05 PM 73.0 °F 56.3 °F 56% 30.36 in 10.0 mi South 9.2 mph 16.1 mph N/A   Clear
12:25 PM 73.0 °F 55.6 °F 54% 30.35 in 10.0 mi SSW 5.8 mph 20.7 mph N/A   Clear
12:45 PM 74.3 °F 57.4 °F 55% 30.35 in 10.0 mi South 8.1 mph 19.6 mph N/A   Clear
1:05 PM 73.2 °F 55.0 °F 53% 30.35 in 10.0 mi South 5.8 mph 16.1 mph N/A   Clear
1:25 PM 73.8 °F 55.0 °F 52% 30.34 in 10.0 mi SSE 8.1 mph - N/A   Clear
1:45 PM 75.0 °F 56.1 °F 52% 30.34 in 10.0 mi South 10.4 mph 18.4 mph N/A   Clear
2:05 PM 74.3 °F 54.9 °F 51% 30.33 in 10.0 mi SSE 6.9 mph 17.3 mph N/A   Clear
2:25 PM 75.6 °F 55.4 °F 49% 30.33 in 10.0 mi South 9.2 mph - N/A   Clear
2:45 PM 75.4 °F 54.1 °F 48% 30.32 in 10.0 mi SSE 8.1 mph - N/A   Clear
3:05 PM 74.7 °F 53.1 °F 47% 30.31 in 10.0 mi South 8.1 mph - N/A   Clear
3:25 PM 74.7 °F 52.0 °F 45% 30.30 in 10.0 mi SSW 5.8 mph 17.3 mph N/A   Clear
3:45 PM 73.9 °F 53.2 °F 48% 30.30 in 10.0 mi South 8.1 mph - N/A   Clear
4:05 PM 73.4 °F 53.2 °F 49% 30.29 in 10.0 mi South 9.2 mph 16.1 mph N/A   Clear
4:25 PM 72.7 °F 53.1 °F 50% 30.29 in 10.0 mi South 9.2 mph - N/A   Clear
4:45 PM 72.3 °F 56.1 °F 57% 30.29 in 10.0 mi SSE 5.8 mph 17.3 mph N/A   Clear
5:05 PM 71.8 °F 56.8 °F 59% 30.29 in 10.0 mi South 8.1 mph - N/A   Clear
5:25 PM 70.7 °F 57.0 °F 62% 30.29 in 10.0 mi SSE 5.8 mph 16.1 mph N/A   Clear
6:05 PM 69.1 °F 58.3 °F 68% 30.29 in 10.0 mi SSE 6.9 mph - N/A   Scattered Clouds
6:25 PM 68.4 °F 58.1 °F 70% 30.29 in 10.0 mi SSE 8.1 mph 17.3 mph N/A   Scattered Clouds
6:45 PM 68.0 °F 58.1 °F 71% 30.28 in 10.0 mi SSE 9.2 mph - N/A   Clear
7:05 PM 67.3 °F 58.1 °F 72% 30.28 in 10.0 mi SSE 3.5 mph - N/A   Clear
7:25 PM 66.6 °F 57.2 °F 72% 30.29 in 10.0 mi South 9.2 mph - N/A   Clear
7:45 PM 65.8 °F 56.7 °F 72% 30.29 in 10.0 mi SSE 5.8 mph - N/A   Clear
8:05 PM 64.8 °F 56.3 °F 74% 30.29 in 10.0 mi SSE 4.6 mph - N/A   Clear
8:25 PM 64.4 °F 56.3 °F 75% 30.30 in 10.0 mi Calm Calm - N/A   Clear
8:45 PM 63.3 °F 56.3 °F 78% 30.30 in 10.0 mi Calm Calm - N/A   Clear
9:05 PM 63.1 °F 56.3 °F 78% 30.31 in 10.0 mi Calm Calm - N/A   Clear
9:25 PM 62.6 °F 56.5 °F 80% 30.31 in 10.0 mi Calm Calm - N/A   Clear
9:45 PM 62.2 °F 56.5 °F 81% 30.31 in 10.0 mi Calm Calm - N/A   Scattered Clouds
10:05 PM 62.1 °F 56.7 °F 82% 30.32 in 10.0 mi ENE 3.5 mph - N/A   Mostly Cloudy
10:25 PM 61.3 °F 56.7 °F 85% 30.32 in 10.0 mi Calm Calm - N/A   Overcast
10:45 PM 62.2 °F 56.8 °F 82% 30.32 in 10.0 mi Calm Calm - N/A   Overcast
11:05 PM 61.5 °F 57.2 °F 86% 30.32 in 10.0 mi East 3.5 mph - N/A   Overcast
11:25 PM 61.2 °F 57.0 °F 86% 30.31 in 10.0 mi Calm Calm - N/A   Overcast
11:45 PM 61.2 °F 57.2 °F 87% 30.31 in 10.0 mi SE 3.5 mph - N/A   Overcast